Probability
0 0 0 0 0 0 0 0 0 0 0 0 0 0 0 0 0 0 0 0 0 0 0 0 0 0 0 0 0 0 0 0 0 0 0 0 0 0 0 0 0 0 0 0 0 0 0 0 0
0 0 0 0 0 0 0 0 0 0 0 0 0 0 0 0 0 0 0 0 0 0 0 0 0 0 0 0 0 0 0 0 0 0 0 0 0 0 0 0 0 0 0 0 0 0 0 0 0
0 0 0 0 0 0 0 0 0 0 0 0 0 0 0 0 0 0 0 0 0 0 0 0 0 0 0 0 0 0 0 0 0 0 0 0 0 0 0 0 0 0 0 0 0 0 0 0 0
0 0 0 0 0 0 0 0 0 0 0 0 0 0 0 0 0 0 0 0 0 0 0 0 0 0 0 0 0 0 0 0 0 0 0 0 0 0 0 0 0 0 0 0 0 0 0 0 0
0 0 0 0 0 0 0 0 0 0 0 0 0 0 0 0 0 0 0 0 0 0 0 0 0 0 0 0 0 0 0 0 0 0 0 0 0 0 0 0 0 0 0 0 0 0 0 0 0
0 0 0 0 0 0 0 0 0 0 0 0 0 0 0 0 0 0 0 0 0 0 0 0 0 0 0 0 0 0 0 0 0 0 0 0 0 0 0 0 0 0 0 0 0 0 0 0 0
0 0 0 0 0 0 0 0 0 0 0 0 0 0 0 0 0 0 0 0 0 0 0 0 0 0 0 0 0 0 0 0 0 0 0 0 0 0 0 0 0 0 0 0 0 0 0 0 0
0 0 0 0 0 0 0 0 0 0 0 0 0 0 0 0 0 0 0 0 0 0 0 0 0 0 0 0 0 0 0 0 0 0 0 0 0 0 0 0 0 0 0 0 0 0 0 0 0
0 0 0 0 0 0 0 0 0 0 0 0 0 0 0 0 0 0 0 0 0 0 0 0 0 0 0 0 0 0 0 0 0 0 0 0 0 0 0 0 0 0 0 0 0 0 0 0 0
0 0 0 0 0 0 0 0 0 0 0 0 0 0 0 0 0 0 0 0 0 0 0 0 0 0 0 0 0 0 0 0 0 0 0 0 0 0 0 0 0 0 0 0 0 0 0 0 0
0 0 0 0 0 0 0 0 0 0 0 0 0 0 0 0 0 0 0 0 0 0 0 0 0 0 0 0 0 0 0 0 0 0 0 0 0 0 0 0 0 0 0 0 0 0 0 0 0
0 0 0 0 0 0 0 0 0 0 0 0 0 0 0 0 0 0 0 0 0 0 0 0 0 0 0 0 0 0 0 0 0 0 0 0 0 0 0 0 0 0 0 0 0 0 0 0 0
0 0 0 0 0 0 0 0 0 0 0 0 0 0 0 0 0 0 0 0 0 0 0 0 0 0 0 0 0 0 0 0 0 0 0 0 0 0 0 0 0 0 0 0 0 0 0 0 0
0 0 0 0 0 0 0 0 0 0 0 0 0 0 0 0 0 0 0 0 0 0 0 0 0 0 0 0 0 0 0 0 0 0 0 0 0 0 0 0 0 0 0 0 0 0 0 0 0
0 0 0 0 0 0 0 0 0 0 0 0 0 0 0 0 0 0 0 0 0 0 0 0 0 0 0 0 0 0 0 0 0 0 0 0 0 0 0 0 0 0 0 0 0 0 0 0 0
0 0 0 0 0 0 0 0 0 0 0 0 0 0 0 0 0 0 0 0 0 0 0 0 0 0 0 0 0 0 0 0 0 0 0 0 0 0 0 0 0 0 0 0 0 0 0 0 0
0 0 0 0 0 0 0 0 0 0 0 0 0 0 0 0 0 0 0 0 0 0 0 0 0 0 0 0 0 0 0 0 0 0 0 0 0 0 0 0 0 0 0 0 0 0 0 0 0
0 0 0 0 0 0 0 0 0 0 0 0 0 0 0 0 0 0 0 0 0 0 0 0 0 0 0 0 0 0 0 0 0 0 0 0 0 0 0 0 0 0 0 0 0 0 0 0 0
0 0 0 0 0 0 0 0 0 0 0 0 0 0 0 0 0 0 0 0 0 0 0 0 0 0 0 0 0 0 0 0 0 0 0 0 0 0 0 0 0 0 0 0 0 0 0 0 0
0 0 0 0 0 0 0 0 0 0 0 0 0 0 0 0 0 0 0 0 0 0 0 0 0 0 0 0 0 0 0 0 0 0 0 0 0 0 0 0 0 0 0 0 0 0 0 0 0
0 0 0 0 0 0 0 0 0 0 0 0 0 0 0 0 0 0 0 0 0 0 0 0 0 0 0 0 0 0 0 0 0 0 0 0 0 0 0 0 0 0 0 0 0 0 0 0 0
0 0 0 0 0 0 0 0 0 0 0 0 0 0 0 0 0 0 0 0 0 0 0 0 0 0 0 0 0 0 0 0 0 0 0 0 0 0 0 0 0 0 0 0 0 0 0 0 0
0 0 0 0 0 0 0 0 0 0 0 0 0 0 0 0 0 0 0 0 0 0 0 0 0 0 0 0 0 0 0 0 0 0 0 0 0 0 0 0 0 0 0 0 0 0 0 0 0
0 0 0 0 0 0 0 0 0 0 0 0 0 0 0 0 0 0 0 0 0 0 0 0 0 0 0 0 0 0 0 0 0 0 0 0 0 0 1 2 1 0 0 0 0 0 0 0 0
0 0 0 0 0 0 0 0 0 0 0 0 0 0 0 0 0 0 0 0 0 0 0 0 0 0 0 0 0 0 0 0 0 0 0 0 0 1 2 3 2 1 0 0 0 0 0 0 0
0 0 0 0 0 0 0 0 0 0 0 0 0 0 0 0 0 0 0 0 0 0 0 0 0 0 0 0 0 0 0 0 0 0 0 0 0 1 2 3 3 2 0 0 0 0 0 0 0
0 0 0 0 0 0 0 0 0 0 0 0 0 0 0 0 0 0 0 0 0 0 0 0 0 0 0 0 0 0 0 0 0 0 0 0 0 0 1 2 2 1 0 0 0 0 0 0 0
0 0 0 0 0 0 0 0 0 0 0 0 0 0 0 0 0 0 0 0 0 0 0 0 0 0 0 0 0 0 0 0 0 0 0 0 0 0 0 1 1 0 0 0 0 0 0 0 0
0 0 0 0 0 0 0 0 0 0 0 0 0 0 0 0 0 0 0 0 0 0 0 0 0 0 0 0 0 0 0 0 0 0 0 0 0 0 0 0 0 0 0 0 0 0 0 0 0
0 0 0 0 0 0 0 0 0 0 0 0 0 0 0 0 0 0 0 0 0 0 0 0 0 0 0 0 0 0 0 0 0 0 0 0 0 0 0 0 0 0 0 0 0 0 0 0 0
Wind_Speed
15 9 2 5 7 6 2 2 2 2 2 1 3 8 7 4 2 3 2 9 12 9 7 9 11 13 13 12 12 11 11 12 12 12 12 13 13 13 13 13 13 13 13 13 13 13 13 12 12
9 5 5 6 6 3 2 2 3 2 3 2 5 6 6 3 2 6 5 8 12 10 8 9 11 12 13 12 12 11 11 11 11 11 12 12 12 13 13 12 12 12 12 12 12 12 11 11 11
8 3 5 5 4 3 3 2 4 2 1 3 4 5 5 4 4 5 7 11 11 9 7 9 11 12 13 12 12 11 11 11 11 11 11 11 12 12 12 12 11 11 11 12 11 11 10 9 9
4 6 6 5 2 2 6 5 4 3 2 3 5 4 2 1 5 6 11 11 11 8 8 9 12 12 13 12 12 11 11 11 11 11 11 11 11 12 11 11 11 11 11 10 10 10 9 8 8
4 5 6 3 1 1 2 5 6 4 2 2 5 4 1 3 4 10 11 11 11 8 7 9 11 11 12 12 12 11 11 11 10 10 10 10 10 11 11 11 10 10 10 10 9 8 7 6 6
5 5 4 0 2 1 2 3 4 4 2 2 5 5 1 1 6 8 9 10 10 10 8 8 11 11 11 11 11 11 11 11 10 10 10 10 10 10 10 10 10 9 9 9 8 7 6 4 3
4 3 2 2 2 2 2 2 5 5 3 3 6 6 2 3 5 6 7 8 8 9 8 6 7 8 10 10 10 10 10 10 9 10 10 8 8 8 8 8 9 9 8 8 7 6 5 3 1
3 3 0 1 2 3 2 1 3 5 3 1 5 8 6 7 6 6 6 7 7 7 8 7 6 6 6 7 10 10 10 9 9 9 9 8 7 7 7 6 7 8 8 8 7 6 4 2 1
3 4 2 2 2 2 1 1 2 1 4 3 3 4 5 10 8 7 5 4 6 7 7 7 7 6 6 6 8 9 10 10 9 8 9 8 4 4 4 5 6 7 8 8 7 6 4 3 2
4 3 6 3 2 2 0 1 1 2 2 2 3 3 4 9 10 9 8 9 9 10 9 8 8 8 7 6 5 4 5 6 6 5 6 4 4 3 4 6 7 7 7 8 8 7 5 3 2
4 6 4 3 1 1 1 0 1 3 2 4 5 6 8 7 9 10 9 9 9 9 9 9 9 9 8 5 5 4 3 4 5 6 6 5 4 3 3 2 3 4 5 3 4 4 2 3 2
3 4 3 2 1 0 1 1 1 3 5 4 6 11 11 11 13 13 12 10 8 8 9 9 9 9 9 7 6 6 5 4 5 6 7 5 3 4 4 3 4 3 2 3 3 2 4 4 5
4 3 3 3 2 2 2 2 3 5 6 3 4 9 12 13 12 11 10 8 8 10 10 10 10 10 9 8 7 7 7 6 6 6 7 7 5 5 5 4 4 4 3 4 4 4 5 5 5
4 3 3 3 3 2 3 4 3 8 4 2 5 9 11 13 13 10 10 11 12 13 12 10 10 10 10 9 8 7 7 7 7 7 8 9 7 6 6 5 5 5 5 5 5 5 5 5 4
2 1 3 3 4 4 2 7 8 9 4 5 6 8 10 11 11 13 14 14 14 12 12 12 11 10 11 10 10 7 7 7 7 7 8 9 8 8 7 6 6 6 5 6 5 5 4 4 5
2 2 4 5 5 5 5 12 9 7 5 8 8 8 9 10 11 13 13 13 12 11 11 13 11 11 12 10 9 7 7 8 7 7 7 10 10 9 7 6 6 6 5 5 5 5 4 5 5
4 5 6 5 5 5 8 10 8 6 7 9 9 9 9 9 10 11 12 13 13 13 13 13 13 13 13 11 8 7 7 8 7 7 7 9 10 10 8 7 6 6 5 5 5 5 4 5 5
8 6 6 8 4 5 8 11 9 6 7 10 9 9 9 10 13 12 12 12 12 12 13 13 13 13 11 8 6 5 7 7 7 8 8 9 9 10 9 7 7 7 6 6 6 6 5 5 4
7 7 8 6 4 5 10 13 13 9 8 9 10 9 10 12 12 10 10 10 9 10 11 13 13 13 10 8 9 9 10 9 7 8 9 10 10 11 10 8 8 8 8 9 8 6 7 6 3
7 8 7 4 3 4 7 12 11 10 10 11 12 12 12 11 10 9 8 8 10 11 12 13 14 13 13 11 10 7 6 6 7 6 8 10 11 11 10 11 9 9 8 9 9 8 5 5 5
12 11 9 6 2 3 4 10 10 10 9 9 10 11 11 13 13 11 10 10 10 11 13 12 14 14 13 12 6 4 3 3 5 8 10 12 13 12 11 12 11 10 10 10 11 10 10 8 6
15 9 8 6 4 5 4 10 9 9 10 11 12 11 12 13 13 11 10 9 10 12 11 12 12 12 12 11 9 11 11 12 13 10 8 9 11 12 12 12 12 11 10 11 11 11 10 9 8
6 7 8 8 7 7 6 9 9 5 10 10 11 13 14 13 13 12 11 11 10 9 9 10 10 11 11 11 13 13 13 12 7 6 8 9 9 12 12 13 12 13 12 13 11 11 12 10 10
6 5 2 3 5 14 14 11 11 8 11 9 10 11 12 12 11 10 9 8 7 6 6 7 8 9 10 12 12 14 14 12 9 9 10 10 9 9 13 13 13 13 12 13 13 12 13 12 12
8 7 5 7 9 12 8 11 13 9 10 13 13 12 11 9 8 7 7 6 6 5 6 6 7 9 9 10 12 13 14 13 14 12 11 10 9 10 12 13 14 13 14 13 12 12 13 14 13
14 13 10 9 8 5 5 13 11 8 10 9 10 8 7 7 6 6 6 6 5 5 4 5 6 8 8 9 11 11 12 10 9 11 9 10 10 10 10 12 13 14 13 13 12 12 13 12 14
12 12 8 4 3 4 8 8 9 5 7 7 8 7 8 7 5 4 3 3 3 3 3 4 5 5 5 7 8 8 9 10 10 9 10 9 9 7 9 10 12 13 14 14 13 12 13 12 13
10 10 7 8 8 10 8 8 8 6 8 8 8 8 8 5 3 3 2 2 2 2 1 1 2 3 4 4 5 5 6 8 8 7 8 9 9 9 9 10 12 13 13 14 14 13 13 13 13
9 10 8 8 6 8 8 9 8 10 10 9 8 7 6 4 3 2 1 1 1 1 1 1 1 1 2 3 3 4 5 5 6 7 9 9 8 9 10 10 11 12 13 13 13 14 13 14 14
12 13 13 10 9 7 7 10 4 6 5 5 5 3 3 3 2 1 0 1 2 2 2 2 2 2 3 3 3 3 4 4 5 7 8 8 8 8 9 10 10 11 12 12 14 15 14 15 15
Wind_Direction
323 322 35 54 53 50 40 340 146 97 67 42 75 86 94 84 101 144 126 136 134 139 143 140 138 136 132 130 127 125 122 119 117 115 113 111 109 106 105 103 101 99 98 96 95 93 90 87 85
319 337 44 55 76 66 344 306 103 114 160 122 80 90 85 76 94 117 127 144 138 139 142 140 137 138 137 135 132 130 127 124 122 119 118 117 116 113 111 109 107 106 105 103 101 99 95 91 84
328 32 66 64 86 149 166 216 152 140 115 94 75 72 109 148 143 147 154 145 136 137 138 142 141 142 141 140 138 136 134 131 129 127 124 121 120 118 116 114 113 110 108 107 106 104 101 93 83
12 29 49 68 70 207 172 196 176 127 58 74 99 75 69 144 172 151 143 142 136 137 140 148 147 147 147 146 144 143 141 139 137 136 132 128 125 124 123 120 117 115 114 113 111 109 105 94 81
45 59 50 37 310 268 186 185 164 137 147 106 104 106 67 347 123 129 140 140 139 140 146 154 152 152 152 152 151 150 149 146 145 143 138 135 133 132 131 129 126 123 122 120 118 116 112 99 78
39 56 74 347 284 275 238 186 141 130 163 129 109 114 147 145 128 137 139 141 144 147 150 156 157 156 156 156 156 155 154 153 152 150 147 146 143 142 141 139 138 135 133 132 129 127 123 109 77
81 82 147 212 251 268 248 165 132 136 146 165 128 120 165 198 176 145 136 138 144 148 150 154 159 160 161 160 160 159 158 158 158 156 152 150 149 148 147 147 149 149 145 143 142 142 143 139 80
114 98 106 227 211 244 269 39 126 135 160 155 118 144 189 201 176 137 130 138 147 154 158 161 165 163 163 164 166 164 163 161 159 155 153 154 154 152 152 152 160 160 158 157 157 161 170 185 268
77 84 212 224 194 236 284 52 9 116 114 70 72 167 196 151 145 134 136 148 162 169 172 171 172 172 169 169 173 169 168 168 162 160 162 158 155 156 161 170 170 170 168 170 173 181 191 213 274
99 160 220 226 188 199 241 124 173 76 82 78 45 34 112 140 156 166 174 180 181 185 185 181 180 179 176 178 169 171 173 171 169 168 169 167 169 177 179 187 184 180 178 183 189 197 205 219 277
161 192 227 261 251 180 174 254 173 130 195 202 189 175 157 165 176 188 194 192 193 188 189 188 186 184 182 179 173 177 175 176 179 179 180 178 178 185 185 182 189 187 185 188 203 208 215 228 245
190 225 222 246 289 334 222 240 247 189 215 223 199 170 171 182 192 199 202 202 196 195 199 195 190 188 188 183 182 183 183 186 190 192 189 181 183 188 187 188 189 189 189 195 205 215 225 234 241
213 243 244 247 263 251 260 251 251 252 252 253 162 164 186 195 205 211 210 207 200 205 206 200 193 191 189 186 189 189 192 194 196 195 197 190 188 192 192 196 195 197 197 199 207 219 230 237 242
211 231 261 254 253 242 241 264 249 254 251 233 178 194 205 206 209 210 212 213 210 211 210 203 199 196 189 190 194 193 195 195 196 200 201 196 195 193 193 198 200 204 203 204 207 214 224 233 235
165 218 293 254 228 234 227 272 238 242 243 248 236 223 222 223 217 214 213 213 212 212 208 205 203 198 196 196 197 196 195 194 198 201 202 201 199 197 196 200 204 207 205 206 211 220 225 233 236
136 179 239 250 210 210 183 253 252 243 226 244 247 243 237 234 226 224 221 218 214 209 207 208 204 201 203 202 199 199 197 197 201 200 201 204 203 199 199 205 209 203 198 201 208 212 220 230 232
180 205 218 250 220 200 197 244 254 237 217 237 245 245 242 246 245 234 226 220 215 210 207 205 203 203 204 204 202 200 199 203 204 202 204 207 207 203 202 209 210 199 203 206 211 211 209 222 231
185 192 206 218 231 202 224 246 260 256 231 238 245 248 245 243 245 238 228 223 218 213 209 206 204 205 201 198 199 204 210 212 210 209 210 206 208 207 207 211 207 200 207 213 212 216 215 219 223
178 187 208 221 222 209 234 247 255 251 248 250 251 250 249 247 249 244 233 225 218 214 210 208 205 204 195 194 201 208 217 216 215 215 212 210 210 209 211 214 209 207 215 218 213 212 219 227 202
204 215 224 251 240 223 254 260 258 246 234 233 239 243 247 252 260 254 239 226 217 214 212 210 209 204 201 205 205 206 207 214 217 215 216 215 214 213 214 216 215 212 217 219 215 210 216 219 187
216 214 212 221 299 287 293 282 255 253 237 240 238 237 241 242 247 248 241 229 222 219 215 212 211 207 205 204 194 192 194 212 214 218 222 220 218 217 217 218 218 216 218 224 220 214 215 224 211
225 208 202 208 218 251 213 271 257 242 252 243 241 240 242 244 245 244 239 233 223 222 216 213 211 208 206 199 196 198 207 218 222 222 222 218 216 219 219 220 220 221 222 227 224 218 220 219 223
203 172 192 205 216 247 223 255 266 221 246 247 240 240 241 241 240 240 236 231 228 221 214 212 210 210 205 200 203 206 217 226 227 218 221 220 218 220 221 222 223 225 226 228 226 221 220 221 225
147 129 155 188 212 244 223 228 262 208 220 234 237 238 239 240 241 241 241 239 239 229 217 212 208 213 208 204 206 210 218 223 222 221 225 226 225 224 224 223 225 227 228 228 227 225 223 225 226
163 158 194 210 219 242 189 214 249 214 210 216 229 236 237 237 237 237 241 240 237 228 218 212 209 217 212 207 211 215 220 222 224 225 227 228 229 228 226 222 225 227 230 230 227 225 227 226 226
191 184 197 207 215 249 197 228 250 227 228 231 234 236 240 241 238 241 244 239 241 239 227 216 216 223 218 213 217 220 223 224 229 230 229 228 231 232 227 222 226 228 228 228 227 229 230 229 229
180 204 202 190 195 238 235 257 290 252 243 240 240 235 236 239 241 244 252 254 250 247 236 220 222 233 231 224 225 226 226 228 232 233 231 234 237 236 229 226 227 228 228 228 227 230 230 229 230
181 164 165 198 209 232 241 235 237 230 229 231 233 235 242 240 238 244 256 268 271 264 268 234 216 234 243 241 236 236 234 235 239 240 239 239 240 236 233 231 231 230 229 228 227 231 231 230 231
178 185 187 192 196 208 241 249 218 213 212 216 226 230 229 223 221 236 266 289 307 360 25 19 344 305 293 270 255 251 250 245 243 243 246 246 247 242 239 237 235 234 232 228 228 230 228 231 233
193 196 189 201 213 209 232 256 229 205 213 210 220 226 223 219 218 217 276 352 8 8 5 360 343 328 308 299 288 273 267 261 255 253 254 252 251 246 243 241 240 239 237 232 229 231 230 231 234